Location: Unspecified
(43.4680°N, 87.1740°E)
Time: 05:51:17
(UTC+00:00)

METEOR-M - Pass Details

Date: 17 April 2021
Orbit: 816 x 819 km, 98.5° (Epoch: 16 May)

Event Time Altitude Azimuth Distance (km) Brightness Sun altitude
Rises 22:44:20 0° 13° (NNE) 3,356 7.9 -7.7°
Reaches altitude 10° 22:46:42 10° 14° (NNE) 2,420 7.1 -7.3°
Maximum altitude 22:52:04 89° 101° (E) 824 4.2 -6.4°
Drops below altitude 10° 22:57:24 10° 195° (SSW) 2,404 6.2 -5.5°
Sets 22:59:44 0° 195° (SSW) 3,332 7.0 -5.1°
